Location: Rounton
(54.4000°N, 1.3500°W)
Time: 14:14:50
(UTC+00:00)

Transit 2A - Pass Details

Date: 08 December 2021
Orbit: 591 x 967 km, 66.7° (Epoch: 17 January)

Event Time Altitude Azimuth Distance (km) Brightness Sun altitude
Rises 03:15:00 0° 287° (WNW) 3,547 - -41.6°
Reaches altitude 10° 03:17:54 10° 299° (WNW) 2,648 - -41.2°
Maximum altitude 03:23:08 27° 356° (N) 1,759 - -40.4°
Exits shadow 03:25:18 23° 26° (NNE) 1,955 8.3 -40.1°
Drops below altitude 10° 03:28:30 10° 53° (NE) 2,716 9.4 -39.7°
Sets 03:31:31 0° 65° (ENE) 3,655 10.4 -39.3°
